Whidbey Island, WA
on Saturday, February 23, 2013

Saturday
Previous Day Next Day
Daily Summary
 ActualAverageRecord
Temperature
Mean Temperature °F °F  
Max Temperature 46°F 47°F 53°F (2004)
Min Temperature 39°F 33°F 26°F (2011)
Degree Days
Heating Degree Days 22    
Moisture
Dew Point 36°F   
Average Humidity 74    
Maximum Humidity 86    
Minimum Humidity 66    
Precipitation
Precipitation 0.05 in in in ()
Wind
Wind Speed 18 mph   
Max Wind Speed 29 mph   
Max Gust Speed 37 mph   
Visibility 10 miles   
Events Rain   
Averages and records for this station are not official NWS values.
Key: T is trace of precipitation, MM is missing value
Source: NWS Daily Summary
Seasonal Weather Averages
Time(PST)TemperatureDew PointHumidity Pressure Visibility Wind DirectionWind SpeedGust SpeedPrecipitationEvents Conditions
12:56 AM 42.1°F 35.1°F 76% 29.91 in 10.0 miles WSW 19.6 mph 25.3 mph N/A   Mostly Cloudy
1:14 AM 42.8°F 33.8°F 70% 29.90 in 10.0 miles SSW 13.8 mph - 0.00 in Rain Light Rain
1:56 AM 39.9°F 33.1°F 77% 29.93 in 10.0 miles South 6.9 mph - 0.00 in   Overcast
2:22 AM 39.2°F 33.8°F 81% 29.92 in 10.0 miles South 9.2 mph - 0.00 in Rain Light Rain
2:56 AM 39.0°F 34.0°F 82% 29.94 in 10.0 miles South 9.2 mph - 0.02 in Rain Light Rain
3:56 AM 39.0°F 35.1°F 86% 29.96 in 10.0 miles Variable 6.9 mph - 0.03 in   Overcast
4:20 AM 42.8°F 37.4°F 81% 29.94 in 10.0 miles West 25.3 mph 32.2 mph N/A   Overcast
4:56 AM 43.0°F 37.9°F 82% 29.96 in 10.0 miles West 28.8 mph 36.8 mph N/A   Mostly Cloudy
5:56 AM 44.1°F 37.9°F 79% 30.00 in 9.0 miles West 26.5 mph 35.7 mph N/A   Overcast
6:56 AM 44.1°F 37.0°F 76% 30.03 in 9.0 miles West 26.5 mph 36.8 mph N/A   Overcast
7:56 AM 44.1°F 37.0°F 76% 30.07 in 7.0 miles West 23.0 mph 33.4 mph N/A   Overcast
8:56 AM 45.0°F 37.9°F 76% 30.12 in 8.0 miles West 23.0 mph 29.9 mph N/A   Mostly Cloudy
9:56 AM 45.0°F 37.0°F 74% 30.14 in 8.0 miles West 19.6 mph 29.9 mph N/A   Mostly Cloudy
10:56 AM 46.0°F 37.9°F 73% 30.17 in 8.0 miles West 25.3 mph 33.4 mph N/A   Mostly Cloudy
11:56 AM 46.9°F 37.9°F 71% 30.20 in 9.0 miles West 21.9 mph 31.1 mph N/A   Mostly Cloudy
12:56 PM 46.9°F 37.0°F 68% 30.21 in 10.0 miles West 25.3 mph 31.1 mph N/A   Mostly Cloudy
1:56 PM 46.9°F 37.0°F 68% 30.23 in 10.0 miles West 23.0 mph 32.2 mph N/A   Mostly Cloudy
2:56 PM 46.0°F 36.0°F 68% 30.25 in 10.0 miles West 23.0 mph 29.9 mph N/A   Mostly Cloudy
3:56 PM 46.0°F 35.1°F 66% 30.26 in 10.0 miles West 21.9 mph 27.6 mph N/A   Mostly Cloudy
4:56 PM 45.0°F 35.1°F 68% 30.27 in 10.0 miles West 19.6 mph 28.8 mph N/A   Mostly Cloudy
5:56 PM 44.1°F 35.1°F 71% 30.30 in 10.0 miles West 20.7 mph 29.9 mph N/A   Mostly Cloudy
6:56 PM 44.1°F 35.1°F 71% 30.31 in 10.0 miles WSW 18.4 mph - N/A   Mostly Cloudy
7:56 PM 44.1°F 35.1°F 71% 30.33 in 10.0 miles West 13.8 mph 23.0 mph N/A   Scattered Clouds
8:56 PM 44.1°F 35.1°F 71% 30.34 in 10.0 miles WSW 17.3 mph 26.5 mph N/A   Mostly Cloudy
9:56 PM 44.1°F 35.1°F 71% 30.35 in 10.0 miles West 15.0 mph 26.5 mph N/A   Mostly Cloudy
10:56 PM 44.1°F 35.1°F 71% 30.36 in 10.0 miles WSW 18.4 mph - N/A   Mostly Cloudy
11:56 PM 43.0°F 35.1°F 74% 30.37 in 10.0 miles WSW 15.0 mph - N/A   Overcast
Moon Phase
Feb. 23 Feb. 25 Mar. 04 Mar. 11 Mar. 19
Sunrise:07:02 AM (PST) Moon Rise:03:57 PM (PST)
Sunset:05:45 PM (PST) Moon Set:05:34 AM (PST)

Copyright © 2014 The Weather Underground, Inc.